• MPC Preparation (Info)

  • MPEC 2010-T09 : 2010 TD

    The following Minor Planet Electronic Circular may be linked-to from your own Web pages, but must not otherwise be redistributed electronically.

    A form allowing access to any MPEC is at the bottom of this page.


    Read MPEC 2010-T08 Read MPEC 2010-T10


    M.P.E.C. 2010-T09                                Issued 2010 Oct. 2, 16:32 UT
    
         The Minor Planet Electronic Circulars contain information on unusual
             minor planets and routine data on comets.  They are published
       on behalf of Commission 20 of the International Astronomical Union by the
              Minor Planet Center, Smithsonian Astrophysical Observatory,
                              Cambridge, MA 02138, U.S.A.
    
                 Prepared using the Tamkin Foundation Computer Network
    
                                  MPC@CFA.HARVARD.EDU
           URL https://www.minorplanetcenter.org/iau/mpc.html  ISSN 1523-6714
    
                                        2010 TD
    
    Observations:
         K10T00D* C2010 10 01.20604 00 38 24.91 +04 19 29.1          21.5 V ET009691
         K10T00D  C2010 10 01.22369 00 38 26.12 +04 18 26.0          20.7 V ET009691
         K10T00D  C2010 10 01.24133 00 38 27.20 +04 17 21.2          20.8 V ET009691
         K10T00D  C2010 10 01.33332 00 38 31.53 +04 11 49.7          20.6 R ET009H01
         K10T00D  C2010 10 01.34079 00 38 31.94 +04 11 23.4          20.5 R ET009H01
         K10T00D tC2010 10 01.34348 00 38 32.71 +04 11 18.6          21.1 V ET009291
         K10T00D tC2010 10 01.34735 00 38 32.96 +04 11 05.6          21.4 V ET009291
         K10T00D  C2010 10 01.34792 00 38 32.35 +04 10 58.5          20.7 R ET009H01
         K10T00D tC2010 10 01.35109 00 38 33.10 +04 10 52.9          21.1 V ET009291
         K10T00D  C2010 10 01.35512 00 38 32.74 +04 10 33.4          20.5 R ET009H01
         K10T00D  C2010 10 02.15475 00 39 56.93 +03 30 45.3          20.6 R ET009H01
         K10T00D  C2010 10 02.16404 00 39 57.36 +03 30 21.8          20.6 R ET009H01
         K10T00D  C2010 10 02.17188 00 39 57.74 +03 30 01.8          20.9 R ET009H01
         K10T00D  C2010 10 02.17975 00 39 58.07 +03 29 41.8          20.6 R ET009H01
         K10T00D tC2010 10 02.19218 00 39 59.14 +03 29 15.1          21.5 V ET009291
         K10T00D KC2010 10 02.19293300 39 56.19 +03 28 58.9          21.0 V ET009H21
         K10T00D tC2010 10 02.19608 00 39 59.29 +03 29 04.8          21.5 V ET009291
         K10T00D tC2010 10 02.19991 00 39 59.47 +03 28 54.8          21.7 V ET009291
         K10T00D KC2010 10 02.20560200 39 56.62 +03 28 27.0          20.6 V ET009H21
         K10T00D KC2010 10 02.21825000 39 57.04 +03 27 54.9          20.8 V ET009H21
         K10T00D  C2010 10 02.40158 00 40 05.61 +03 20 42.4          21.1 V ET009291
         K10T00D  C2010 10 02.40708 00 40 05.82 +03 20 29.0          21.5 V ET009291
         K10T00D  C2010 10 02.41079 00 40 05.97 +03 20 20.0          21.1 V ET009291
    
    Observer details:
    291 LPL/Spacewatch II.  Observer T. H. Bressi.  1.8-m f/2.7 reflector + CCD.
    691 Steward Observatory, Kitt Peak.  Observer T. H. Bressi.  0.9-m f/3
        reflector + CCD.
    H01 Magdalena Ridge Observatory, Socorro.  Observer W. H. Ryan.  2.4-m f/8.9
        reflector + CCD.
    H21 Astronomical Research Observatory, Westfield.  Observer R. Holmes.
        Measurer S. Foglia.  0.81-m f/4.0 astrograph + CCD.
    
    Orbital elements:
    2010 TD                                                  Earth MOID = 0.0051 AU
    Epoch 2010 July 23.0 TT = JDT 2455400.5                 MPC
    M 353.75586              (2000.0)            P               Q
    n   0.30147938     Peri.   99.80123     +0.30974786     +0.95078647
    a   2.2027454      Node   188.25550     -0.89234543     +0.28784494
    e   0.6813509      Incl.    3.12695     -0.32829241     +0.11467508
    P   3.27           H   26.8           G   0.15           U   7
    Residuals in seconds of arc
    101001 691  0.6-  0.2-    101001 291  0.4-  0.2+    101002 291  0.3-  0.0
    101001 691  0.3+  0.8+    101001 H01  0.1-  0.1+    101002 291  0.1+  0.4-
    101001 691  0.3+  0.3-    101002 H01  0.0   0.3+    101002 H21  0.4+  0.2+
    101001 H01  0.0   0.1+    101002 H01  0.1-  0.3+    101002 H21  0.3+  0.2-
    101001 H01  0.0   0.0     101002 H01  0.3+  0.1+    101002 291  0.3-  0.1+
    101001 291  0.2-  0.6-    101002 H01  0.1+  0.1-    101002 291  0.1-  0.1-
    101001 291  0.5+  0.1-    101002 291  0.1-  0.6+    101002 291  0.2+  0.3-
    101001 H01  0.2+  0.1+    101002 H21  0.7+  0.2+
    
    Ephemeris:
    2010 TD                  a,e,i = 2.20, 0.68, 3                   q = 0.7019
    Date    TT    R. A. (2000) Decl.     Delta      r     Elong.  Phase     V
    2010 10 01    00 37.90   +04 34.1    0.0501   1.051   177.0     2.8    20.7
    2010 10 03    00 40.83   +03 00.3    0.0719   1.073   178.4     1.5    21.4
    2010 10 05    00 42.36   +02 10.3    0.0939   1.094   177.6     2.2    22.1
    2010 10 07    00 43.30   +01 39.6    0.116    1.115   176.0     3.6    22.7
    2010 10 09    00 43.95   +01 19.3    0.139    1.137   174.2     5.1    23.2
    2010 10 11    00 44.45   +01 05.5    0.161    1.159   172.4     6.5    23.7
    
    Carl W. Hergenrother         (C) Copyright 2010 MPC           M.P.E.C. 2010-T09
    

    Read MPEC 2010-T08 Read MPEC 2010-T10


    MPEC number:

    Enter an MPEC number in one of the following forms:

    • 1997-B01 (the full form)
    • J97B01 (the packed version of the full form)
    • B01 (the abbreviated form)